Regional Weather Roundup
Issued by NWS Goodland, KS

Home | Current Version | Previous Version | Text Only | Print | Product List | Glossary Off
Versions: 1 2 3 4 5 6 7 8 9 10 11 12 13 14 15 16 17 18 19 20 21 22 23 24 25 26 27 28 29 30 31 32 33 34 35 36 37 38 39 40 41 42 43 44 45 46 47 48 49 50

000
ASUS43 KGLD 271859
RWRGLD

GOODLAND FORECAST AREA HOURLY WEATHER ROUNDUP
NATIONAL WEATHER SERVICE GOODLAND KS
1200 PM MST TUE JAN 27 2015

...OFFICIAL OBSERVATIONS...

CITY           SKY/WX    TMP DP  RH WIND       PRES   REMARKS
GOODLAND KS    SUNNY     79  22  12 SW13      30.06F
HILL CITY KS   SUNNY     75  28  17 W9        30.01F
IMPERIAL NEB   SUNNY     70  29  21 W9        30.03F
MCCOOK NEB     SUNNY     63  33  32 W9        30.01F
AKRON CO       SUNNY     67  28  23 W8        30.10F
BURLINGTON CO  SUNNY     72  28  19 SW15      30.10F
LIMON CO       SUNNY     70  16  12 SW14G25   30.13F
$$

...UNOFFICIAL OBSERVATIONS...

CITY           SKY/WX    TMP DP  RH WIND       PRES   REMARKS
COLBY KS       SUNNY     81  36  19 W15       30.05F
GOVE KS          N/A     77  32  19 MISG        N/A
NORTON KS      SUNNY     68  25  19 SW9       30.00F
SHARON SPRINGS   N/A     77  29  17 SW13        N/A
KIT CARSON CO    N/A     68  35  29 MISG        N/A
YUMA CO          N/A     69  32  25 NW5         N/A
$$



USA.gov is the U.S. government's official web portal to all federal, state and local government web resources and services.